星链-3619 (STARLINK-3619 )

导读

STARLINK-3619是美国太空探索技术公司 SpaceX 星链(Starlink)星座的组网卫星,于2022年2月25日发射升空。星链项目旨在构建全球卫星互联网星座,该卫星加入后进一步完善了星链低轨卫星网络的覆盖能力,为全球多地提供宽带互联网接入服务,推动全球网络覆盖与通信互联发展。

Basic Information
目录编号:
51787
目录名称:
STARLINK-3619
国际标识:
2022-017V
轨道中心:
EARTH
卫星名称:
星链-3619
卫星全名:
星链-3619 (STARLINK-3619 )
卫星状态:
在轨 (已飞行1660 天)
发射日期:
2022-02-25 UTC
国别 :
美国 (US)
星等 :
--
This satellite is enrolled in the Space Conjunction Data Service (SCDS) and the current flight risk assessment level is: High Risk
Orbit Information
数据来源 国际轨道数据 AOE轨道数据
星历时间 2026-09-11T15:49:58+0800
1天前
查看轨道信息
2026-09-07T00:00:00+0800
5天前
查看轨道信息
半长轴 6840.862km 6840.868km
偏心率 0.0001131 0.0001501
轨道倾角 53.159° 53.158°
近地点辐角 87.395° 115.063°
升交点赤经 220.258° 242.043°
平近点角 272.718° 51.409°
近地点 461.951km 461.704km
远地点 463.499km 463.758km
周期 93.848分钟 93.848分钟
每日圈数 15.343927 15.343908
Detailed Information
固有亮度:
5
最大亮度:
2.5
卫星平台:
Starlink v1.5
覆盖范围:
全球
运营商:
太空探索技术公司
运营商所在国:
美国
制造商(研发单位):
太空探索技术公司
制造商所在国:
美国
使用方式:
暂无
Satellite Introduction
星链(Starlink)计划是由太空探索技术公司(SpaceX)提出的一个巨型低轨卫星互联网星座项目,计划在2019年至2024年间在太空搭建由约1.2万颗卫星组成的“星链”网络,其中1584颗将部署在地球上空550千米处的近地轨道,并从2020年开始工作。该卫星仍在工作。
2D Orbit Map
3D Orbit Map
Orbit Altitude Analysis Chart
Orbit Inclination Analysis Chart
Orbit Comprehensive Analysis Chart
View Comprehensive Chart
Miss Distance Evolution Trend with All Objects
Collision Probability Evolution Trend with All Objects